Regional Weather Roundup
Issued by NWS State College, PA

Home | Current Version | Previous Version | Text Only | Print | Product List | Glossary Off
Versions: 1 2 3 4 5 6 7 8 9 10 11 12 13 14 15 16 17 18 19 20 21 22 23 24 25 26 27 28 29 30 31 32 33 34 35 36 37 38 39 40 41 42 43 44 45 46 47 48 49 50

000
ASUS41 KCTP 042010
RWRCTP

REGIONAL WEATHER ROUNDUP
NATIONAL WEATHER SERVICE STATE COLLEGE PA
400 PM EDT FRI SEP 04 2015

Note: "fair" indicates few or no clouds below 12,000 feet with no
significant weather and/or obstructions to visibility.

* = STATION THAT DOES NOT REPORT PRECIPITATION /E.G. RAIN...SNOW...ETC/
    THUNDER OR FOG.

PAZ002>004-007>009-013>016-020>023-029>032-042100-
WESTERN PENNSYLVANIA

CITY           SKY/WX    TMP DP  RH WIND       PRES   REMARKS
ERIE           SUNNY     81  69  67 N9        30.06F
MEADVILLE      MOSUNNY   85  62  46 SE3       30.08F
FRANKLIN*      SUNNY     84  61  45 CALM      30.10F
NEW CASTLE     FAIR      87  67  51 CALM      30.07F
BEAVER COUNTY  PTSUNNY   86  61  42 NW5       30.07F
BUTLER*        PTSUNNY   88  63  42 SW7       30.08F
PITTSBURGH INT PTSUNNY   88  58  36 SW7       30.05F
PITTSBURGH     SUNNY     89  54  30 VRB7      30.05F
INDIANA*       MOSUNNY   82  68  61 S10       30.11R
LATROBE        MOSUNNY   86  63  45 SE7       30.07F
WASHINGTON CO* MOSUNNY   88  61  40 W9        30.07S
$$

PAZ004>006-010>012-017>019-024>028-033>037-041-042-045-046-049>053-042100-
CENTRAL PENNSYLVANIA

CITY           SKY/WX    TMP DP  RH WIND       PRES   REMARKS
BRADFORD       PTSUNNY   84  63  49 SE7       30.12S THUNDER
DUBOIS         MOSUNNY   88  63  43 E3        30.08F
CLEARFIELD     SUNNY     88  62  41 E7        30.08F
JOHNSTOWN      PTSUNNY   80  63  55 NW6       30.11F
ALTOONA        MOSUNNY   90  63  40 E8        30.07F
STATE COLLEGE  MOSUNNY   84  68  58 VRB6      30.08F
WILLIAMSPORT   SUNNY     89  64  43 VRB3      30.03F
SELINSGROVE    MOSUNNY   90  66  45 CALM      30.03F
FT INDIANTOWN  SUNNY     89  66  46 E8        30.04S
CAPITAL CITY   MOSUNNY   90  67  46 E9        30.02F
HARRISBURG     PTSUNNY   90  69  50 SE16      30.02S
YORK           PTSUNNY   90  69  50 N7        30.03S
$$

PAZ038>040-043-044-047-048-054-055-060>062-067>071-042100-
EASTERN PENNSYLVANIA

CITY           SKY/WX    TMP DP  RH WIND       PRES   REMARKS
SCRANTON       MOSUNNY   84  67  56 SE8       30.09S
MOUNT POCONO   MOSUNNY   77  66  68 E10       30.17R
ALLENTOWN      CLOUDY    80  71  74 VRB7      30.08R HAZE
QUAKERTOWN*    PTCLDY    84  68  58 E9G17     30.08S
READING        MOSUNNY   86  68  54 E7        30.03S
LANCASTER      MOSUNNY   87  65  47 E8        30.04R
COATESVILLE    PTCLDY    81  68  65 CALM      30.08R
POTTSTOWN      SUNNY     85  69  58 E10G16    30.08R
BLUE BELL      MOSUNNY   86  70  58 E10G17    30.06S
DOYLESTOWN     MOSUNNY   82  67  60 VRB3      30.07S
WILLOW GROVE   NOT AVBL
NORTH PHILA    MOSUNNY   86  65  49 E16       30.08S
PHILADELPHIA   MOSUNNY   88  68  51 E16       30.05R
$$



USA.gov is the U.S. government's official web portal to all federal, state and local government web resources and services.